Regional Weather Roundup
Issued by NWS Raleigh/Durham, NC

Home | Current Version | Previous Version | Text Only | Print | Product List | Glossary On
Versions: 1 2 3 4 5 6 7 8 9 10 11 12 13 14 15 16 17 18 19 20 21 22 23 24 25 26 27 28 29 30 31 32 33 34 35 36 37 38 39 40 41 42 43 44 45 46 47 48 49 50
000
ASUS42 KRAH 030510
RWRRAH
NORTH CAROLINA WEATHER ROUNDUP
NATIONAL WEATHER SERVICE RALEIGH NC
100 AM EDT THU SEP 03 2015

NOTE: "FAIR" INDICATES FEW OR NO CLOUDS BELOW 12,000 FEET WITH NO
SIGNIFICANT WEATHER AND/OR OBSTRUCTIONS TO VISIBILITY.

NCZ001-053-055-056-065-067-030600-
WESTERN NORTH CAROLINA

CITY           SKY/WX    TMP DP  RH WIND       PRES   REMARKS
ASHEVILLE      CLOUDY    72  68  87 NW5       30.11S
JEFFERSON      PTCLDY    67  58  72 NW3       30.17S
MORGANTON      CLEAR     71  68  88 CALM      30.09S
HICKORY        CLEAR     74  68  81 CALM      30.04S
RUTHERFORDTON  CLOUDY    77  69  77 CALM      30.03F
MOUNT AIRY     PTCLDY    73  68  84 CALM      30.07R
BOONE          CLEAR     63  63 100 CALM      30.17S
$$

NCZ021-022-025-041-071-084-088-030600-
CENTRAL NORTH CAROLINA

CITY           SKY/WX    TMP DP  RH WIND       PRES   REMARKS
CHARLOTTE      PTCLDY    80  67  64 NE5       30.01S
GREENSBORO     PTCLDY    77  67  71 CALM      30.02S
WINSTON-SALEM  PTCLDY    72  67  84 CALM      30.04S
RALEIGH-DURHAM MOCLDY    72  70  93 E5        29.99F
FORT BRAGG     PTCLDY    80  69  68 NW9       29.96S
FAYETTEVILLE   PTCLDY    77  71  82 SW6       29.96S
BURLINGTON     PTCLDY    73  68  84 CALM      30.01S
LAURINBURG     PTCLDY    75  70  84 SW5       29.98S
$$

NCZ011-015-027-028-043-044-047-080-103-030600-
NORTHEASTERN NORTH CAROLINA

CITY           SKY/WX    TMP DP  RH WIND       PRES   REMARKS
ROCKY MT-WILSO MOCLDY    71  70  96 VRB3      29.97S
GREENVILLE     LGT RAIN  70  70 100 SE6       30.00F
WASHINGTON     LGT RAIN  69  68  96 W3        30.00F
ELIZABETH CITY LGT RAIN  71  69  93 SW5       29.95F
MANTEO         MOCLDY    77  69  77 W5        29.95F
CAPE HATTERAS  MOCLDY    79  73  82 W5        29.96S
$$

NCZ078-087-090-091-093-098-101-030600-
SOUTHEASTERN NORTH CAROLINA

CITY           SKY/WX    TMP DP  RH WIND       PRES   REMARKS
LUMBERTON      CLEAR     78  73  84 SW6       29.97S
GOLDSBORO      MOCLDY    73  70  90 E9        29.97F
KINSTON        MOCLDY    73  69  86 E13       30.01S
KENANSVILLE      N/A     77  72  86 N6        30.00R
NEW BERN       CLOUDY    76  67  73 N15       30.02R
CHERRY POINT   CLOUDY    77  75  93 W3        29.99R
BEAUFORT       PTCLDY    79  78  97 SW9       29.97S
JACKSONVILLE   CLEAR     77  72  84 SW6       29.97R
WILMINGTON     PTCLDY    77  74  90 SW3       29.98S
$$




USA.gov is the U.S. government's official web portal to all federal, state and local government web resources and services.